Regional Weather Roundup
Issued by NWS

Home | Current Version | Previous Version | Text Only | Print | Product List | Glossary Off
Versions: 1 2 3 4 5 6 7 8 9 10 11 12 13 14 15 16 17 18 19 20 21 22 23 24 25 26 27 28 29 30 31 32 33 34 35 36 37 38 39 40 41 42 43 44 45 46 47 48 49 50

000
ASUS45 KABQ 242001
RWRNM
NEW MEXICO REGIONAL WEATHER ROUNDUP
NATIONAL WEATHER SERVICE ALBUQUERQUE NM
200 PM MDT SUN JUL 24 2016

NOTE: "FAIR" MEANS FEW OR NO CLOUDS BELOW 12,000 FEET AGL WITH NO
       SIGNIFICANT WEATHER OR OBSTRUCTIONS TO VISION.

      THIS PRODUCT IS RELEASED AS TWO VERSIONS.  ONE VERSION NEAR
      THE TOP OF THE HOUR CONTAINING PRELIMINARY DATA FROM ALBUQUERQUE
      AND OTHER STATIONS.  A FINAL VERSION WITH ADDITIONAL DATA IS
      ISSUED ABOUT 10 MINUTES AFTER THE HOUR.

NMZ501-503-504-510>518-242100-
NORTHWEST PLATEAU/NORTHCENTRAL MOUNTAINS

CITY           SKY/WX    TMP DP  RH WIND       PRES   REMARKS
FARMINGTON     FAIR      95  39  14 S6        30.11F
LOS ALAMOS     FAIR      80  39  22 NW16G26   30.30F
SANTA FE       FAIR      95  42  16 VRB3      30.19F
TAOS           FAIR      84  41  21 NW21G30   30.29S
ANGEL FIRE     FAIR      76  44  31 SE16G22   30.39F

$$
NMZ402-403-502-505>509-242100-
WESTCENTRAL MOUNTAINS/SOUTHWEST MOUNTAINS

CITY           SKY/WX    TMP DP  RH WIND       PRES   REMARKS
GALLUP         FAIR      89  40  17 VRB3      30.22F
GRANTS         FAIR      92  38  15 CALM      30.23F
SILVER CITY    FAIR      95  46  18 W12       30.11F

$$
NMZ407-409-411-412-242100-
SOUTHERN DESERTS

CITY           SKY/WX    TMP DP  RH WIND       PRES   REMARKS
LORDSBURG      FAIR      97  52  21 W13G21    30.04F
DEMING         FAIR     102  46  15 VRB7      30.00F HX  98
LAS CRUCES     FAIR     100  40  13 SE6       30.03F HX  95
ALAMOGORDO     FAIR     100  45  15 S12G18    29.99F HX  96
T OR C         FAIR      97  42  15 VRB5      30.04F

$$
NMZ519>523-242100-
CENTRAL VALLEYS/CENTRAL HIGHLANDS

CITY           SKY/WX    TMP DP  RH WIND       PRES   REMARKS
ALBUQUERQUE    FAIR      96  43  16 VRB7G17   30.10F
DOUBLE EAGLE   MOSUNNY   97  46  17 S7        30.16F
MORIARTY ARPT  PTSUNNY   90  37  15 S14G23    30.21F
CLINES CORNERS FAIR      88  44  21 SE12G23   30.29F
BELEN          FAIR      98  39  13 N8        30.08F
SOCORRO        FAIR     100  39  12 N6        30.04F HX  95

$$
NMZ524>526-539-540-242100-
SOUTHCENTRAL MOUNTAINS

CITY           SKY/WX    TMP DP  RH WIND       PRES   REMARKS
RUIDOSO          N/A     86  41  20 E14G23    30.28F

$$
NMZ527>531-242100-
NORTHEAST HIGHLANDS/NORTHEAST PLAINS

CITY           SKY/WX    TMP DP  RH WIND       PRES   REMARKS
LAS VEGAS      CLOUDY    83  45  26 MISG      30.30R
RATON          FAIR      86  47  25 NW12      30.20F
CLAYTON        FAIR      89  51  27 S7        30.14F

$$
NMZ532>537-242100-
EASTCENTRAL PLAINS

CITY           SKY/WX    TMP DP  RH WIND       PRES   REMARKS
TUCUMCARI      FAIR      99  47  17 VRB3      30.04F HX  95
CANNON AFB     FAIR      95  53  24 SE13G25   30.09F
CLOVIS AIRPORT FAIR      95  55  26 SE15      30.10F

$$
NMZ028-029-538-242100-
SOUTHEAST PLAINS

CITY           SKY/WX    TMP DP  RH WIND       PRES   REMARKS
ROSWELL        FAIR     101  50  18 SE9       30.00F HX  98
ARTESIA        FAIR      99  50  19 VRB7G20   30.00F HX  95
CARLSBAD       FAIR      99  51  19 E7G17     29.97F HX  96
HOBBS          MOSUNNY   95  52  23 E16G24    30.04F


$$




USA.gov is the U.S. government's official web portal to all federal, state and local government web resources and services.